Ana Sayfa
METAR-TAF:

METAR-TAF

Havaalanları :

Whyalla, Avustralya

Enlem: 33-03-32S, Boylam: 137-30-52E, yükseklik: 12 m

Güncel hava durumu gözlemi

Rapor saat 15:00 UTC de 1 saat ve 8 dakika önce yapıldı.
Rüzgar güney/güneydoğudan 9 kt
Sıcaklık 19°C
Nem 78%
Basınç 1016 hPa

METAR: YWHA 281500Z AUTO 16009KT //// // NCD 19/15 Q1016

Saat: 02:38 (16:08 UTC)


TAF: eksik

4.000'den fazla havaalanı için hava durumu gözlemleri ve tahminleri (METAR ve TAF raporları).

Kullanılabilir istasyonlar harita üzerinde sarı ve kırmızı noktalarla gösterilir.

İstasyonun adını görmek için fareyi noktanın üzerinde gezdirin.

Sonrasında hava gözlem ve tahminlerini görmek için tıklayın.

Haritayı değiştirmek için: yaklaştırmak için siyah artı işaretli yeşil düğmeye ve uzaklaştırmak için de eksi işaretli düğmeye hızla tıklayın; bitişik haritalar için yeşil okları kullanın.


METAR-TAF: